Home > Weather > Scranton > Past weeks

Flag for USA Past Weather in Scranton, Pennsylvania, USA — Yesterday and Last 2 Weeks

Now
63 °F

Clear.


Feels Like: 63 °F
Forecast: 64 / 88 °F
Wind: 7 mph from East

Location: Barre - Scranton - Wilkes-Barre / Scranton International Airport

Current Time: Jun 26, 2016 at 6:16:36 AM

Latest Report: Jun 26, 2016 at 4:54 AM


Visibility: 10 mi

Pressure: 30.19 "Hg

Humidity: 78%

Dew Point: 56 °F

Location of ScrantonLocation

Past Weather in Scranton — Graph

°F

Scranton Temperature Yesterday

Maximum temperature yesterday: 88 °F (at 3:54 PM)
Minimum temperature yesterday: 59 °F (at 5:54 AM)
Average temperature yesterday: 74 °F

High & Low Weather Summary for the Past Weeks

 TemperatureHumidityPressure
High89 °F (Jun 19, 2:54 PM)94% (Jun 16, 2:54 AM)30.32 "Hg (Jun 16, 2:54 AM)
Low50 °F (Jun 11, 4:54 AM)18% (Jun 17, 3:54 PM)29.67 "Hg (Jun 12, 4:54 AM)
Average70 °F59%29.96 "Hg
* Reported Jun 11 4:54 AM — Jun 26 4:54 AM, Scranton, Weather by CustomWeather, © 2016

Note: Actual official high and low records may vary slightly from our data, if they occured in-between our weather recording intervals... More about our weather records

Advertising

Scranton Weather History for the Previous 24 Hours

Scroll right to see more
 ConditionsComfort  
Time TempWeatherWind HumidityBarometerVisibility
4:54 AM
Sun, Jun 26
63 °FClear.7 mph78%30.19 "Hg10 mi
3:54 AM64 °FClear.No wind75%30.20 "Hg10 mi
2:54 AM64 °FClear.3 mph78%30.20 "Hg10 mi
1:54 AM65 °FClear.3 mph76%30.19 "Hg10 mi
12:54 AM65 °FClear.No wind76%30.17 "Hg10 mi
11:54 PM
Sat, Jun 25
67 °FClear.No wind73%30.16 "Hg10 mi
10:54 PM70 °FClear.No wind66%30.16 "Hg10 mi
9:54 PM75 °FClear.3 mph54%30.15 "Hg10 mi
8:54 PM77 °FSunny.No wind50%30.14 "Hg10 mi
7:54 PM80 °FScattered clouds.7 mph45%30.15 "Hg10 mi
6:54 PM83 °FPartly sunny.10 mph38%30.13 "Hg10 mi
5:54 PM86 °FSunny.3 mph31%30.13 "Hg10 mi
4:54 PM88 °FSunny.7 mph26%30.14 "Hg10 mi
3:54 PM88 °FScattered clouds.6 mph26%30.14 "Hg10 mi
2:54 PM86 °FPartly sunny.N/A30%30.14 "Hg10 mi
1:54 PM84 °FSunny.6 mph32%30.16 "Hg10 mi
12:54 PM83 °FScattered clouds.3 mph37%30.18 "Hg10 mi
11:54 AM81 °FSunny.No wind44%30.18 "Hg10 mi
10:54 AM79 °FSunny.7 mph48%30.18 "Hg10 mi
9:54 AM75 °FSunny.No wind55%30.18 "Hg10 mi
8:54 AM72 °FSunny.No wind64%30.18 "Hg10 mi
7:54 AM66 °FSunny.No wind73%30.17 "Hg10 mi
6:54 AM61 °FSunny.5 mph83%30.16 "Hg9 mi
Weather by CustomWeather, © 2016

See weather overviewHow to use our weather pages